Вернуться в каталог

DELTA 1 DEB

АктивенPO
NORAD 21570·DEBRIS·🇺🇸 United States

Запущен Jun 12, 1975 с Vandenberg Space Force Base

Loading…

Ближайшие Пролёты (ближайшие 24 часа)

TLE

УстаревающийSource: Space-Track

Эпоха: Sep 10, 2026, 04:10 UTC

1 21570U 75052HQ  26253.17401420  .00000982  00000-0  53757-2 0  9999
2 21570  99.5354  52.3779 0693320 277.3701 268.3413 12.09645416358343

Отслеживайте DELTA 1 DEB в реальном времени с AllMySat

Download on the App Store